Regional Weather Roundup
Issued by NWS

Home | Current Version | Previous Version | Graphics & Text | Print | Product List | Glossary On
Versions: 1 2 3 4 5 6 7 8 9 10 11 12 13 14 15 16 17 18 19 20 21 22 23 24 25 26 27 28 29 30 31 32 33 34 35 36 37 38 39 40 41 42 43 44 45 46 47 48 49 50
000
ASUS43 KLOT 231009
RWRIL

ILLINOIS REGIONAL WEATHER ROUNDUP
NATIONAL WEATHER SERVICE CHICAGO/ROMEOVILLE IL
500 AM CDT FRI JUN 23 2017

NOTE: "FAIR" INDICATES FEW OR NO CLOUDS BELOW 12,000 FEET WITH NO
SIGNIFICANT WEATHER AND/OR OBSTRUCTIONS TO VISIBILITY.

* THESE STATIONS ARE NOT UNDER NWS QUALITY CONTROL. THEY ALSO MAY NOT
  REPORT WEATHER SUCH AS PRECIPITATION OR FOG.

ILZ001-002-007-009-015-016-024-231100-
NORTHWEST ILLINOIS

CITY           SKY/WX    TMP DP  RH WIND       PRES   REMARKS
MOLINE         CLOUDY    73  68  84 N10       29.66R
STERLING*      LGT RAIN  68  66  94 NW6       29.68S
SAVANNA*       CLOUDY    67  65  91 N7        29.69F THUNDER
$$

ILZ003-004-008-010-011-017-018-231100-
NORTH CENTRAL ILLINOIS

CITY           SKY/WX    TMP DP  RH WIND       PRES   REMARKS
ROCKFORD       TSTM      68  66  93 N10       29.70R FOG
FREEPORT*      LGT RAIN  65  64  96 N7        29.71S
ROCHELLE*      TSTM      67  66  96 W6        29.70R
PERU*          HVY RAIN  67  65  93 NW16G26   29.70R
$$

ILZ005-006-012>014-019>023-231100-
NORTHEAST ILLINOIS

CITY           SKY/WX    TMP DP  RH WIND       PRES   REMARKS
CHICAGO-OHARE  TSTM      68  65  90 N16G32    29.66R FOG
CHICAGO-MIDWAY CLOUDY    77  72  84 SW7       29.63F
AURORA         TSTM      68  67  96 W21G28    29.69R
LANSING*       CLOUDY    75  70  84 SW9       29.66S
JOLIET*        CLOUDY    77  74  91 SW6       29.64F
WAUKEGAN       LGT RAIN  66  65  96 CALM      29.63F FOG
DUPAGE AIRPORT TSTM      70  69  97 NW26G37   29.66R VSB 3/4
WHEELING       TSTM      66  66 100 N12       29.68R FOG
MORRIS*        LGT RAIN  75  72  89 SW10      29.63F
ROMEOVILLE*    CLOUDY    75  70  85 W9G16     29.64F
NORTHERLY ISL    N/A     76  70  82 SW7         N/A
$$

LMZ740>746-231100-
SOUTHERN LAKE MICHIGAN

STATION/POSITION SKY/WX   TEMP    WIND        PRES    VSBY  WAVE
                          AIR SEA DIR/SP/G                  HT/PER
                          (F)     (DEG/KT/KT) (MB)    (MI)  (FT/S)
SOUTHERN BUOY              63 61   20/ 10/ 12 1003.8R         2/ 4
WILMETTE HARBOR            65 64  350/ 12/ 19   N/A           1/ 2
HARRISON CRIB              77     250/ 11/ 14   N/A
BURNHAM HARBOR             76                   N/A
CALUMET HARBOR             75     210/  4/ 10 1003.6F
BURNS HARBOR               74     230/  9/ 14 1004.7S
MICHIGAN CITY              74     220/ 11/ 12   N/A
MICHIGAN CITY 6N           71 68  230/  8/ 12   N/A           1/ 3
ST. JOSEPH                 71 69  230/ 12/ 14 1003.3          2/ 3
$$

ILZ025>027-034>036-040-047-049-050-058-095>099-231100-
WEST-CENTRAL ILLINOIS

CITY           SKY/WX    TMP DP  RH WIND       PRES   REMARKS
QUINCY         CLOUDY    74  72  93 S6        29.67F
GALESBURG*     CLOUDY    74  71  93 W7        29.68R
MACOMB*        CLOUDY    73  72  96 SW6       29.68F
JACKSONVILLE*  PTCLDY    75  73  93 S9        29.68R
PITTSFIELD*    PTCLDY    76  73  90 SW8       29.69R
$$

ILZ028>032-037-038-041>044-048-051>054-059>061-231100-
CENTRAL ILLINOIS

CITY           SKY/WX    TMP DP  RH WIND       PRES   REMARKS
PONTIAC        RAIN      75  75  98 SW13G24   29.66F
BLOOMINGTON    CLOUDY    74  73  97 SW12      29.70S
DECATUR        CLOUDY    75  73  93 SW9       29.70R
PEORIA         CLOUDY    76  75  97 SW9       29.67R
LACON*         CLOUDY    75  74  96 SW6       29.65S
LINCOLN*       CLOUDY    76  75  98 S5        29.68S
SPRINGFIELD    CLOUDY    77  75  93 S9        29.68R
TAYLORVILLE    CLOUDY    74  74  99 S9        29.69S
$$

ILZ033-039-045-046-055>057-062-063-231100-
EAST-CENTRAL ILLINOIS

CITY           SKY/WX    TMP DP  RH WIND       PRES   REMARKS
CHAMPAIGN      CLOUDY    76  73  91 SW13      29.70S
RANTOUL*       CLOUDY    76  75  97 SW8       29.69S
MATTOON        CLOUDY    76  75  97 S9        29.70F
PARIS*         CLOUDY    75  74  95 SW12G17   29.72S
$$

ILZ079-100>102-231100-
SOUTHWEST ILLINOIS

CITY           SKY/WX    TMP DP  RH WIND       PRES   REMARKS
ALTON          CLOUDY    74  73  95 CALM      29.70F
BELLEVILLE     PTCLDY    74  73  96 S6        29.71F
CAHOKIA*       CLOUDY    76  72  87 CALM      29.69F
SPARTA*        MOCLDY    74  72  95 CALM      29.71F
$$

ILZ064>066-069>071-074>076-080>082-084>086-088>090-092>094-231100-
SOUTH-CENTRAL ILLINOIS

CITY           SKY/WX    TMP DP  RH WIND       PRES   REMARKS
CARBONDALE     LGT RAIN  75  75 100 SE6       29.70F
CAIRO*         RAIN      75  74  95 S9        29.71F
EFFINGHAM*     CLOUDY    76  75  98 S8        29.73F
MARION         RAIN      77  75  94 S6        29.72F
MT. VERNON     RAIN      76  74  93 S6        29.72F
CENTRALIA*     CLOUDY    75  75  99 SE6       29.71F
SALEM*         MOCLDY    76  74  92 S5        29.72F
METROPOLIS*    CLOUDY    77  73  89 S10G17    29.73F
$$

ILZ067-068-072-073-078-083-087-091-231100-
SOUTHEAST ILLINOIS

CITY           SKY/WX    TMP DP  RH WIND       PRES   REMARKS
LAWRENCEVILLE  LGT RAIN  76  74  93 S10       29.74F
FLORA*         CLOUDY   N/A N/A N/A S7        29.73F
FAIRFIELD*     CLOUDY    75  75  98 CALM      29.72F
HARRISBURG*    RAIN      75  75  98 S7        29.73F
ROBINSON*      CLOUDY    74  73  95 S9        29.73F
CARMI*         DRIZZLE   75  74  99 S5        29.74S
$$

ABBREVIATIONS USED IN REMARKS
   TC - TEMPERATURE IN CELSIUS
  WCI - WIND CHILL INDEX
   HX - HEAT INDEX
  VSB - VISIBILITY
$$





USA.gov is the U.S. government's official web portal to all federal, state and local government web resources and services.